Simultaneous Nadir Overpasses (SNOs) Predictions

Prediction of SNOs between NOAA-19 and METOP-C Satellite Orbit:

Table of predicted SNOs for the next 14.0 days since TLE Epoch: 7/3/2021
Index Date (NOAA-19) Time (NOAA-19) Lat,Lon (NOAA-19) SZA (NOAA-19 ) Date (METOP-C) Time (METOP-C) Lat,Lon (METOP-C) SZA (METOP-C ) Distance(km) Time Diff (sec)
1 07/09/2021 08:24:36 -80.62, -98.90 120.72 07/09/2021 08:25:48 -80.57, -97.42 120.63 27.47 72
2 07/09/2021 09:15:30 80.56, 70.00 59.36 07/09/2021 09:16:28 80.56, 69.83 59.37 3.07 58
3 07/09/2021 10:06:32 -80.56,-122.89 120.65 07/09/2021 10:07:10 -80.56,-122.91 120.64 0.76 38
4 07/09/2021 10:57:31 80.57, 44.25 59.36 07/09/2021 10:57:50 80.55, 44.34 59.36 2.45 19
5 07/09/2021 11:48:32 -80.56,-148.28 120.63 07/09/2021 11:48:32 -80.55,-148.40 120.65 2.60 0
6 07/09/2021 12:39:30 80.55, 19.21 59.39 07/09/2021 12:39:11 80.57, 19.19 59.39 1.84 19
7 07/09/2021 13:30:32 -80.55,-173.67 120.62 07/09/2021 13:29:53 -80.56,-173.56 120.62 2.11 39
8 07/09/2021 14:21:30 80.55, -6.19 59.40 07/09/2021 14:20:33 80.56, -6.30 59.38 2.33 57



Historial Predications of SNOs between NOAA-19 and METOP-C
